UAE797 GOBD-OMDB

Flight info

Callsign UAE797
Flight time N/A
Altitude 37000
Route SAKLI1B SAKLI UR975 ARDAR UA854 BRENA UG864 TIO UR990 MNA UJ26 HME/N0485F390 UJ30 ELO UG361 BIRSA VANIX ARLOS UN4 SALUN N705 BOPIX N710 TAKRI M720 FYM W613 ALPID MENLI SISIK W976 DATOK L550 KARIK B411 DEESA Y415 GEXUP/N0487F410 Y415 LOTOK P559 VUTEB
Aircraft A388/J-SADE2E3FGHIJ3J4J5M1RWXY/LB1D1

Departure

Time 2026-05-08 05:39
Airport Blaise Diagne International Airport (GOBD)

Arrival

Time N/A
Airport Dubai International Airport (OMDB)
Time Latitude Longitude Altitude Speed Heading
2026-05-08 05:04 14.67079 -17.06862 297 ft 0 kts 89°
2026-05-08 05:29 14.67079 -17.06865 297 ft 3 kts 89°
2026-05-08 05:29 14.67079 -17.06893 298 ft 4 kts 89°
2026-05-08 05:30 14.67078 -17.06920 299 ft 4 kts 89°
2026-05-08 05:30 14.67080 -17.06948 300 ft 4 kts 104°
2026-05-08 05:30 14.67088 -17.06967 301 ft 4 kts 171°
2026-05-08 05:30 14.67087 -17.06976 301 ft 1 kts 257°
2026-05-08 05:33 14.67084 -17.06992 301 ft 4 kts 264°
2026-05-08 05:33 14.67082 -17.07026 302 ft 8 kts 264°
2026-05-08 05:33 14.67049 -17.07082 304 ft 9 kts 207°
2026-05-08 05:34 14.66964 -17.07091 304 ft 16 kts 179°
2026-05-08 05:34 14.66828 -17.07089 301 ft 26 kts 179°
2026-05-08 05:34 14.66766 -17.07088 300 ft 6 kts 179°
2026-05-08 05:34 14.66692 -17.07087 300 ft 15 kts 179°
2026-05-08 05:35 14.66591 -17.07086 299 ft 16 kts 179°
2026-05-08 05:35 14.66464 -17.07085 297 ft 20 kts 180°
2026-05-08 05:35 14.66320 -17.07085 301 ft 21 kts 180°
2026-05-08 05:35 14.66160 -17.07083 297 ft 25 kts 179°
2026-05-08 05:36 14.65992 -17.07081 293 ft 20 kts 179°
2026-05-08 05:36 14.65843 -17.07079 294 ft 21 kts 179°
2026-05-08 05:36 14.65758 -17.07079 293 ft 8 kts 179°
2026-05-08 05:36 14.65678 -17.07078 287 ft 15 kts 179°
2026-05-08 05:37 14.65567 -17.07083 284 ft 15 kts 202°
2026-05-08 05:37 14.65530 -17.07173 283 ft 15 kts 269°
2026-05-08 05:37 14.65559 -17.07260 284 ft 10 kts 333°
2026-05-08 05:37 14.65603 -17.07269 285 ft 0 kts
2026-05-08 05:38 14.65621 -17.07268 285 ft 19 kts
2026-05-08 05:38 14.66000 -17.07272 294 ft 87 kts 358°
2026-05-08 05:38 14.66786 -17.07277 305 ft 135 kts 359°
2026-05-08 05:38 14.67832 -17.07285 380 ft 159 kts 359°
2026-05-08 05:39 14.68882 -17.07283 994 ft 147 kts
2026-05-08 05:39 14.69950 -17.07257 1330 ft 158 kts
2026-05-08 05:39 14.71070 -17.07239 1717 ft 163 kts
2026-05-08 05:39 14.72241 -17.07244 1904 ft 177 kts 358°
2026-05-08 05:40 14.73524 -17.07268 2019 ft 190 kts 359°
2026-05-08 05:40 14.74891 -17.07288 2111 ft 202 kts 359°
2026-05-08 05:40 14.76331 -17.07313 2187 ft 212 kts 358°
2026-05-08 05:40 14.77876 -17.07346 2288 ft 233 kts 359°
2026-05-08 05:41 14.79564 -17.07377 2443 ft 252 kts 359°
2026-05-08 05:41 14.81336 -17.07408 2944 ft 257 kts 359°
2026-05-08 05:41 14.83142 -17.07448 3429 ft 264 kts 359°
2026-05-08 05:41 14.84996 -17.07462 3975 ft 266 kts 360°
2026-05-08 05:42 14.86854 -17.07474 4622 ft 267 kts 360°
2026-05-08 05:42 14.88723 -17.07488 5169 ft 272 kts 360°
2026-05-08 05:42 14.90631 -17.07504 5713 ft 276 kts 360°
2026-05-08 05:42 14.92557 -17.07522 6324 ft 278 kts
2026-05-08 05:43 14.94504 -17.07540 6861 ft 282 kts
2026-05-08 05:43 14.96491 -17.07558 7358 ft 288 kts
2026-05-08 05:43 14.98508 -17.07577 7894 ft 292 kts
2026-05-08 05:43 15.00565 -17.07593 8384 ft 299 kts
2026-05-08 05:44 15.02656 -17.07612 8945 ft 302 kts
2026-05-08 05:44 15.04765 -17.07633 9518 ft 306 kts
2026-05-08 05:44 15.06922 -17.07655 9955 ft 314 kts
2026-05-08 05:44 15.09151 -17.07676 10186 ft 329 kts
2026-05-08 05:45 15.11492 -17.07698 10348 ft 344 kts
2026-05-08 05:45 15.13942 -17.07721 10471 ft 360 kts
2026-05-08 05:45 15.16475 -17.07746 10903 ft 365 kts
2026-05-08 05:45 15.19004 -17.07771 11497 ft 365 kts
2026-05-08 05:46 15.21568 -17.07795 11908 ft 371 kts
2026-05-08 05:46 15.24150 -17.07820 12473 ft 372 kts
2026-05-08 05:46 15.26748 -17.07845 12992 ft 376 kts
2026-05-08 05:46 15.29379 -17.07870 13461 ft 380 kts
2026-05-08 05:47 15.32021 -17.07817 13995 ft 380 kts
2026-05-08 05:47 15.34563 -17.07075 14417 ft 383 kts 26°
2026-05-08 05:47 15.36777 -17.05553 14868 ft 382 kts 43°
2026-05-08 05:47 15.38782 -17.03745 15337 ft 385 kts 41°
2026-05-08 05:48 15.40827 -17.01949 15824 ft 386 kts 41°
2026-05-08 05:48 15.42865 -17.00175 16261 ft 390 kts 40°
2026-05-08 05:48 15.44952 -16.98360 16688 ft 393 kts 40°
2026-05-08 05:48 15.47047 -16.96534 17159 ft 395 kts 40°
2026-05-08 05:49 15.49156 -16.94684 17567 ft 398 kts 40°
2026-05-08 05:49 15.51270 -16.92831 18031 ft 400 kts 40°
2026-05-08 05:49 15.53409 -16.90960 18389 ft 403 kts 40°
2026-05-08 05:49 15.55555 -16.89090 18812 ft 404 kts 39°
2026-05-08 05:50 15.57718 -16.87198 19137 ft 408 kts 39°
2026-05-08 05:50 15.59883 -16.85300 19531 ft 408 kts 39°
2026-05-08 05:50 15.62062 -16.83387 19859 ft 411 kts 39°
2026-05-08 05:50 15.64250 -16.81476 20246 ft 413 kts 39°
2026-05-08 05:51 15.66449 -16.79548 20566 ft 415 kts 39°
2026-05-08 05:51 15.68660 -16.77607 20941 ft 417 kts 39°
2026-05-08 05:51 15.70877 -16.75660 21270 ft 419 kts 39°
2026-05-08 05:51 15.73112 -16.73697 21626 ft 421 kts 39°
2026-05-08 05:52 15.75355 -16.71727 21951 ft 423 kts 39°
2026-05-08 05:52 15.77608 -16.69749 22297 ft 425 kts 39°
2026-05-08 05:52 15.79872 -16.67760 22628 ft 427 kts 39°
2026-05-08 05:52 15.82145 -16.65763 22961 ft 429 kts 39°
2026-05-08 05:53 15.84429 -16.63755 23292 ft 431 kts 39°
2026-05-08 05:53 15.86724 -16.61737 23593 ft 433 kts 39°
2026-05-08 05:53 15.89034 -16.59706 23818 ft 437 kts 39°
2026-05-08 05:53 15.91362 -16.57658 24036 ft 440 kts 38°
2026-05-08 05:54 15.93700 -16.55600 24263 ft 443 kts 38°
2026-05-08 05:54 15.96057 -16.53524 24484 ft 446 kts 38°
2026-05-08 05:54 15.98440 -16.51426 24707 ft 449 kts 38°
2026-05-08 05:54 16.00828 -16.49322 24925 ft 452 kts 38°
2026-05-08 05:55 16.03238 -16.47199 25140 ft 455 kts 38°
2026-05-08 05:55 16.05697 -16.45117 25362 ft 457 kts 33°
2026-05-08 05:55 16.08307 -16.43207 25557 ft 460 kts 33°
2026-05-08 05:55 16.10931 -16.41275 25799 ft 463 kts 33°
2026-05-08 05:56 16.13566 -16.39326 26028 ft 466 kts 33°
2026-05-08 05:56 16.16216 -16.37363 26254 ft 470 kts 33°
2026-05-08 05:56 16.18885 -16.35385 26497 ft 473 kts 33°
2026-05-08 05:56 16.21569 -16.33395 26748 ft 476 kts 32°
2026-05-08 05:57 16.24273 -16.31390 26982 ft 479 kts 32°
2026-05-08 05:57 16.26999 -16.29370 27207 ft 482 kts 32°
2026-05-08 05:57 16.29741 -16.27336 27459 ft 486 kts 32°
2026-05-08 05:57 16.32501 -16.25289 27700 ft 489 kts 32°
2026-05-08 05:58 16.35280 -16.23227 27958 ft 493 kts 32°
2026-05-08 05:58 16.38086 -16.21144 28212 ft 496 kts 32°
2026-05-08 05:58 16.40906 -16.19050 28470 ft 500 kts 32°
2026-05-08 05:58 16.43749 -16.16939 28700 ft 504 kts 32°
2026-05-08 05:59 16.46577 -16.14837 28975 ft 508 kts 32°
2026-05-08 05:59 16.49466 -16.12690 29251 ft 512 kts 32°
2026-05-08 05:59 16.52374 -16.10528 29520 ft 516 kts 32°
2026-05-08 05:59 16.55301 -16.08349 29795 ft 519 kts 31°
2026-05-08 06:00 16.58254 -16.06149 30062 ft 523 kts 31°
2026-05-08 06:00 16.61222 -16.03937 30348 ft 526 kts 31°
2026-05-08 06:00 16.64203 -16.01714 30695 ft 527 kts 31°
2026-05-08 06:00 16.67188 -15.99488 31011 ft 529 kts 31°
2026-05-08 06:01 16.70184 -15.97253 31324 ft 531 kts 31°
2026-05-08 06:01 16.73193 -15.95007 31640 ft 533 kts 31°
2026-05-08 06:01 16.76215 -15.92752 31945 ft 535 kts 31°
2026-05-08 06:01 16.79247 -15.90488 32283 ft 537 kts 31°
2026-05-08 06:02 16.82287 -15.88216 32580 ft 539 kts 31°
2026-05-08 06:02 16.85343 -15.85933 32872 ft 541 kts 31°
2026-05-08 06:02 16.88412 -15.83638 33168 ft 543 kts 31°
2026-05-08 06:02 16.91492 -15.81334 33475 ft 546 kts 31°
2026-05-08 06:03 16.94583 -15.79021 33785 ft 548 kts 31°
2026-05-08 06:03 16.97681 -15.76702 34048 ft 550 kts 31°
2026-05-08 06:03 17.00802 -15.74364 34305 ft 552 kts 31°
2026-05-08 06:03 17.03928 -15.72022 34607 ft 553 kts 31°
2026-05-08 06:04 17.07048 -15.69683 34963 ft 553 kts 31°
2026-05-08 06:04 17.10174 -15.67338 35314 ft 552 kts 31°
2026-05-08 06:04 17.13293 -15.64997 35673 ft 552 kts 31°
2026-05-08 06:04 17.16421 -15.62650 35894 ft 554 kts 31°
2026-05-08 06:05 17.19555 -15.60297 36265 ft 553 kts 31°
2026-05-08 06:05 17.22680 -15.57950 36590 ft 553 kts 31°
2026-05-08 06:05 17.25802 -15.55604 36894 ft 554 kts 31°
2026-05-08 06:06 17.32099 -15.50872 36910 ft 556 kts 31°
2026-05-08 06:06 17.38374 -15.46149 36908 ft 557 kts 31°
2026-05-08 06:07 17.44620 -15.41445 36909 ft 557 kts 31°
2026-05-08 06:07 17.50909 -15.36704 36904 ft 557 kts 31°
2026-05-08 06:08 17.57196 -15.31961 36900 ft 557 kts 31°
2026-05-08 06:08 17.63479 -15.27217 36900 ft 556 kts 31°
2026-05-08 06:09 17.69759 -15.22474 36904 ft 556 kts 31°
2026-05-08 06:09 17.76040 -15.17731 36898 ft 556 kts 31°
2026-05-08 06:10 17.82323 -15.12983 36897 ft 557 kts 31°
2026-05-08 06:10 17.88613 -15.08223 36889 ft 558 kts 31°
2026-05-08 06:11 17.94912 -15.03460 36895 ft 558 kts 31°
2026-05-08 06:11 18.01215 -14.98690 36896 ft 559 kts 31°
2026-05-08 06:12 18.07527 -14.93908 36900 ft 559 kts 31°
2026-05-08 06:12 18.13835 -14.89123 36906 ft 559 kts 31°
2026-05-08 06:13 18.20147 -14.84331 36934 ft 559 kts 31°
2026-05-08 06:13 18.26464 -14.79531 36905 ft 560 kts 31°
2026-05-08 06:14 18.32784 -14.74725 36903 ft 560 kts 31°
2026-05-08 06:14 18.39100 -14.69917 36901 ft 560 kts 31°
2026-05-08 06:15 18.45410 -14.65109 36899 ft 560 kts 31°
2026-05-08 06:15 18.51718 -14.60298 36895 ft 560 kts 31°
2026-05-08 06:16 18.58018 -14.55488 36896 ft 560 kts 31°
2026-05-08 06:16 18.64283 -14.50701 36896 ft 560 kts 31°
2026-05-08 06:17 18.73739 -14.43467 36890 ft 560 kts 31°
2026-05-08 06:17 18.80038 -14.38644 36893 ft 560 kts 31°
2026-05-08 06:18 18.86339 -14.33813 36889 ft 560 kts 31°
2026-05-08 06:18 18.92640 -14.28978 36899 ft 560 kts 31°
2026-05-08 06:19 18.98945 -14.24135 36899 ft 560 kts 31°
2026-05-08 06:19 19.05246 -14.19291 36892 ft 560 kts 31°
2026-05-08 06:20 19.11544 -14.14444 36888 ft 560 kts 31°
2026-05-08 06:20 19.17838 -14.09596 36888 ft 560 kts 31°
2026-05-08 06:21 19.23065 -14.05566 36885 ft 560 kts 31°
2026-05-08 06:21 19.29361 -14.00708 36899 ft 560 kts 31°
2026-05-08 06:22 19.35645 -13.95854 36897 ft 559 kts 31°
2026-05-08 06:22 19.41928 -13.90996 36892 ft 559 kts 31°
2026-05-08 06:23 19.48201 -13.86142 36888 ft 558 kts 31°
2026-05-08 06:23 19.54463 -13.81291 36880 ft 558 kts 31°
2026-05-08 06:24 19.60729 -13.76432 36892 ft 558 kts 31°
2026-05-08 06:24 19.66988 -13.71574 36892 ft 557 kts 31°
2026-05-08 06:25 19.73240 -13.66716 36889 ft 557 kts 31°
2026-05-08 06:25 19.79490 -13.61855 36888 ft 556 kts 31°
2026-05-08 06:26 19.85735 -13.56994 36891 ft 556 kts 31°
2026-05-08 06:26 19.91975 -13.52131 36890 ft 556 kts 31°
2026-05-08 06:27 19.98205 -13.47271 36910 ft 556 kts 31°
2026-05-08 06:27 20.04437 -13.42405 36906 ft 555 kts 31°
2026-05-08 06:28 20.10654 -13.37546 36912 ft 554 kts 31°
2026-05-08 06:28 20.16865 -13.32685 36887 ft 554 kts 31°
2026-05-08 06:29 20.23062 -13.27832 36881 ft 553 kts 31°
2026-05-08 06:29 20.29255 -13.22977 36883 ft 553 kts 31°
2026-05-08 06:30 20.35390 -13.18152 36938 ft 550 kts 32°
2026-05-08 06:30 20.41542 -13.13323 36914 ft 548 kts 32°
2026-05-08 06:31 20.47678 -13.08503 36892 ft 548 kts 32°
2026-05-08 06:31 20.53370 -13.03031 36888 ft 554 kts 42°
2026-05-08 06:32 20.58762 -12.97163 36892 ft 554 kts 41°
2026-05-08 06:32 20.64180 -12.91308 36900 ft 554 kts 41°
2026-05-08 06:33 20.69563 -12.85447 36921 ft 551 kts 43°
2026-05-08 06:33 20.74880 -12.79640 36920 ft 544 kts 41°
2026-05-08 06:34 20.80221 -12.73868 36919 ft 551 kts 41°
2026-05-08 06:34 20.85608 -12.68013 36921 ft 551 kts 42°
2026-05-08 06:35 20.90984 -12.62150 36920 ft 552 kts 42°
2026-05-08 06:35 20.96356 -12.56286 36918 ft 552 kts 42°
2026-05-08 06:36 21.01728 -12.50416 36923 ft 552 kts 42°
2026-05-08 06:36 21.07064 -12.44578 36920 ft 552 kts 42°
2026-05-08 06:37 21.12465 -12.38663 36904 ft 552 kts 42°
2026-05-08 06:37 21.17802 -12.32813 36908 ft 553 kts 42°
2026-05-08 06:38 21.23176 -12.26914 36914 ft 554 kts 42°
2026-05-08 06:38 21.28561 -12.20997 36919 ft 555 kts 42°
2026-05-08 06:39 21.33949 -12.15070 36928 ft 555 kts 42°
2026-05-08 06:39 21.39336 -12.09156 36920 ft 552 kts 43°
2026-05-08 06:40 21.44636 -12.03295 36932 ft 545 kts 42°
2026-05-08 06:40 21.49957 -11.97421 36919 ft 549 kts 42°
2026-05-08 06:41 21.55278 -11.91542 36932 ft 549 kts 42°
2026-05-08 06:41 21.60607 -11.85658 36940 ft 549 kts 42°
2026-05-08 06:42 21.65936 -11.79787 36940 ft 549 kts 42°
2026-05-08 06:42 21.71263 -11.73910 36964 ft 549 kts 42°
2026-05-08 06:43 21.76573 -11.68043 36977 ft 545 kts 43°
2026-05-08 06:43 21.81837 -11.62195 36954 ft 543 kts 42°
2026-05-08 06:44 21.87064 -11.56423 36944 ft 541 kts 43°
2026-05-08 06:44 21.92300 -11.50624 36931 ft 540 kts 43°
2026-05-08 06:45 21.97525 -11.44825 36924 ft 539 kts 43°
2026-05-08 06:45 22.02737 -11.39032 36920 ft 538 kts 43°
2026-05-08 06:46 22.07948 -11.33236 36953 ft 538 kts 43°
2026-05-08 06:46 22.13150 -11.27442 36932 ft 538 kts 43°
2026-05-08 06:47 22.18351 -11.21642 36929 ft 537 kts 43°
2026-05-08 06:47 22.23533 -11.15858 36928 ft 538 kts 43°
2026-05-08 06:48 22.28728 -11.10052 36933 ft 538 kts 43°
2026-05-08 06:48 22.33928 -11.04234 36939 ft 538 kts 43°
2026-05-08 06:49 22.39128 -10.98409 36939 ft 539 kts 43°
2026-05-08 06:49 22.44325 -10.92581 36962 ft 539 kts 43°
2026-05-08 06:50 22.49528 -10.86740 36950 ft 539 kts 43°
2026-05-08 06:50 22.54725 -10.80899 36948 ft 539 kts 43°
2026-05-08 06:51 22.59920 -10.75052 36946 ft 538 kts 43°
2026-05-08 06:51 22.65109 -10.69207 36942 ft 538 kts 43°
2026-05-08 06:52 22.70288 -10.63365 36940 ft 538 kts 43°
2026-05-08 06:52 22.75470 -10.57514 36958 ft 538 kts 43°
2026-05-08 06:53 22.80651 -10.51656 36941 ft 538 kts 43°
2026-05-08 06:53 22.85829 -10.45797 36941 ft 538 kts 43°
2026-05-08 06:54 22.91006 -10.39930 36941 ft 538 kts 43°
2026-05-08 06:54 22.96177 -10.34059 36939 ft 538 kts 43°
2026-05-08 06:55 23.01352 -10.28181 36944 ft 538 kts 43°
2026-05-08 06:55 23.06522 -10.22301 36941 ft 538 kts 43°
2026-05-08 06:56 23.11692 -10.16414 36941 ft 539 kts 43°
2026-05-08 06:56 23.16864 -10.10517 36943 ft 539 kts 43°
2026-05-08 06:57 23.22030 -10.04620 36944 ft 538 kts 43°
2026-05-08 06:57 23.27191 -9.98723 36942 ft 538 kts 43°
2026-05-08 06:58 23.32349 -9.92820 36936 ft 538 kts 43°
2026-05-08 06:58 23.37473 -9.86951 36935 ft 538 kts 43°
2026-05-08 06:59 23.42626 -9.81040 36936 ft 538 kts 43°
2026-05-08 06:59 23.47773 -9.75130 36934 ft 538 kts 43°
2026-05-08 07:00 23.52922 -9.69210 36928 ft 538 kts 43°
2026-05-08 07:00 23.58073 -9.63281 36929 ft 538 kts 43°
2026-05-08 07:01 23.63219 -9.57350 36934 ft 538 kts 43°
2026-05-08 07:01 23.68362 -9.51415 36935 ft 538 kts 43°
2026-05-08 07:02 23.73499 -9.45479 36927 ft 538 kts 43°
2026-05-08 07:02 23.78640 -9.39532 36949 ft 538 kts 43°
2026-05-08 07:03 23.83777 -9.33582 36933 ft 539 kts 44°
2026-05-08 07:03 23.88916 -9.27623 36942 ft 539 kts 44°
2026-05-08 07:04 23.94051 -9.21660 36935 ft 539 kts 44°
2026-05-08 07:04 23.99186 -9.15690 36943 ft 539 kts 44°
2026-05-08 07:05 24.04316 -9.09719 36935 ft 539 kts 44°
2026-05-08 07:05 24.09411 -9.03781 36931 ft 539 kts 44°
2026-05-08 07:06 24.14534 -8.97803 36936 ft 539 kts 44°
2026-05-08 07:06 24.19667 -8.91806 36937 ft 539 kts 44°
2026-05-08 07:07 24.24796 -8.85806 36935 ft 539 kts 44°
2026-05-08 07:07 24.29920 -8.79804 36934 ft 539 kts 44°
2026-05-08 07:08 24.35043 -8.73793 36940 ft 539 kts 44°
2026-05-08 07:08 24.40162 -8.67781 36939 ft 539 kts 44°
2026-05-08 07:09 24.45268 -8.61777 36936 ft 539 kts 44°
2026-05-08 07:09 24.49519 -8.56772 36933 ft 539 kts 44°
2026-05-08 07:10 24.54631 -8.50746 36938 ft 539 kts 44°
2026-05-08 07:10 24.59743 -8.44713 36938 ft 539 kts 44°
2026-05-08 07:11 24.64853 -8.38674 36942 ft 539 kts 44°
2026-05-08 07:11 24.69959 -8.32632 36924 ft 539 kts 44°
2026-05-08 07:12 24.75064 -8.26583 36935 ft 540 kts 44°
2026-05-08 07:12 24.80171 -8.20525 36950 ft 540 kts 44°
2026-05-08 07:13 24.85279 -8.14457 36937 ft 541 kts 44°
2026-05-08 07:13 24.90390 -8.08378 36936 ft 541 kts 44°
2026-05-08 07:14 24.95496 -8.02296 36943 ft 540 kts 44°
2026-05-08 07:14 25.00595 -7.96215 36940 ft 540 kts 44°
2026-05-08 07:15 25.05698 -7.90122 36941 ft 540 kts 44°
2026-05-08 07:15 25.10792 -7.84030 36937 ft 540 kts 44°
2026-05-08 07:16 25.15888 -7.77929 36937 ft 541 kts 44°
2026-05-08 07:16 25.20977 -7.71827 36939 ft 541 kts 45°
2026-05-08 07:17 25.26077 -7.65699 36936 ft 541 kts 45°
2026-05-08 07:17 25.31169 -7.59575 36932 ft 541 kts 45°
2026-05-08 07:18 25.36261 -7.53441 36937 ft 541 kts 45°
2026-05-08 07:18 25.41348 -7.47307 36937 ft 541 kts 45°
2026-05-08 07:19 25.46439 -7.41158 36951 ft 542 kts 45°
2026-05-08 07:19 25.51533 -7.34998 36930 ft 543 kts 45°
2026-05-08 07:20 25.56624 -7.28834 36938 ft 543 kts 45°
2026-05-08 07:20 25.61720 -7.22657 36938 ft 543 kts 45°
2026-05-08 07:21 25.66782 -7.16516 36936 ft 543 kts 45°
2026-05-08 07:21 25.71869 -7.10334 36937 ft 543 kts 45°
2026-05-08 07:22 25.76959 -7.04141 36933 ft 543 kts 45°
2026-05-08 07:22 25.82047 -6.97941 36925 ft 544 kts 45°
2026-05-08 07:23 25.87138 -6.91730 36923 ft 544 kts 45°
2026-05-08 07:23 25.92226 -6.85513 36920 ft 544 kts 45°
2026-05-08 07:24 25.97318 -6.79283 36938 ft 545 kts 45°
2026-05-08 07:24 26.02412 -6.73043 36938 ft 545 kts 45°
2026-05-08 07:25 26.07501 -6.66798 36935 ft 545 kts 45°
2026-05-08 07:25 26.12201 -6.60166 36926 ft 549 kts 56°
2026-05-08 07:26 26.14111 -6.56488 36924 ft 550 kts 62°
2026-05-08 07:26 26.17624 -6.48922 36924 ft 550 kts 62°
2026-05-08 07:27 26.21174 -6.41373 36929 ft 550 kts 62°
2026-05-08 07:27 26.24712 -6.33813 36924 ft 550 kts 62°
2026-05-08 07:28 26.28242 -6.26242 36930 ft 551 kts 62°
2026-05-08 07:28 26.31767 -6.18668 36929 ft 551 kts 62°
2026-05-08 07:29 26.35287 -6.11090 36926 ft 550 kts 62°
2026-05-08 07:29 26.38800 -6.03515 36931 ft 550 kts 62°
2026-05-08 07:30 26.42310 -5.95933 36935 ft 549 kts 62°
2026-05-08 07:30 26.45813 -5.88353 36907 ft 550 kts 62°
2026-05-08 07:31 26.49321 -5.80750 36912 ft 551 kts 62°
2026-05-08 07:31 26.52822 -5.73147 36915 ft 551 kts 62°
2026-05-08 07:32 26.56324 -5.65529 36925 ft 551 kts 62°
2026-05-08 07:32 26.59797 -5.57962 36924 ft 551 kts 62°
2026-05-08 07:33 26.63286 -5.50344 36925 ft 551 kts 62°
2026-05-08 07:33 26.66777 -5.42711 36925 ft 551 kts 62°
2026-05-08 07:34 26.70263 -5.35074 36931 ft 551 kts 62°
2026-05-08 07:34 26.73739 -5.27444 36936 ft 550 kts 62°
2026-05-08 07:35 26.77208 -5.19818 36916 ft 550 kts 62°
2026-05-08 07:35 26.80673 -5.12186 36908 ft 551 kts 62°
2026-05-08 07:36 26.84140 -5.04537 36911 ft 551 kts 62°
2026-05-08 07:36 26.87607 -4.96874 36916 ft 551 kts 62°
2026-05-08 07:37 26.91067 -4.89210 36920 ft 552 kts 63°
2026-05-08 07:37 26.94506 -4.81583 36925 ft 552 kts 63°
2026-05-08 07:38 26.97964 -4.73897 36926 ft 552 kts 63°
2026-05-08 07:38 27.01419 -4.66203 36925 ft 552 kts 63°
2026-05-08 07:39 27.04870 -4.58506 36922 ft 552 kts 63°
2026-05-08 07:39 27.08314 -4.50810 36918 ft 552 kts 63°
2026-05-08 07:40 27.11751 -4.43115 36907 ft 553 kts 63°
2026-05-08 07:40 27.15191 -4.35400 36907 ft 553 kts 63°
2026-05-08 07:41 27.18632 -4.27669 36913 ft 553 kts 63°
2026-05-08 07:41 27.22067 -4.19939 36914 ft 553 kts 63°
2026-05-08 07:42 27.25560 -4.12226 36916 ft 554 kts 61°
2026-05-08 07:42 27.29207 -4.04602 36916 ft 554 kts 61°
2026-05-08 07:43 27.32841 -3.96973 36912 ft 554 kts 61°
2026-05-08 07:43 27.36460 -3.89321 36914 ft 554 kts 61°
2026-05-08 07:44 27.40067 -3.81667 36911 ft 554 kts 61°
2026-05-08 07:44 27.43670 -3.74004 36908 ft 554 kts 61°
2026-05-08 07:45 27.47271 -3.66330 36899 ft 555 kts 61°
2026-05-08 07:45 27.50869 -3.58649 36899 ft 555 kts 62°
2026-05-08 07:46 27.54469 -3.50950 36900 ft 555 kts 62°
2026-05-08 07:46 27.58064 -3.43250 36888 ft 555 kts 62°
2026-05-08 07:47 27.61651 -3.35549 36910 ft 555 kts 62°
2026-05-08 07:47 27.65235 -3.27843 36908 ft 554 kts 62°
2026-05-08 07:48 27.68810 -3.20143 36899 ft 554 kts 62°
2026-05-08 07:48 27.72356 -3.12488 36895 ft 554 kts 62°
2026-05-08 07:49 27.75919 -3.04785 36879 ft 554 kts 62°
2026-05-08 07:49 27.79473 -2.97086 36904 ft 552 kts 62°
2026-05-08 07:50 27.83019 -2.89390 36893 ft 552 kts 62°
2026-05-08 07:50 27.86558 -2.81696 36892 ft 551 kts 62°
2026-05-08 07:51 27.90087 -2.74008 36883 ft 551 kts 62°
2026-05-08 07:51 27.93612 -2.66316 36881 ft 551 kts 62°
2026-05-08 07:52 27.97129 -2.58625 36891 ft 550 kts 62°
2026-05-08 07:52 28.00644 -2.50927 36891 ft 550 kts 62°
2026-05-08 07:53 28.04152 -2.43227 36898 ft 550 kts 62°
2026-05-08 07:53 28.07660 -2.35515 36887 ft 551 kts 62°
2026-05-08 07:54 28.11168 -2.27782 36890 ft 552 kts 62°
2026-05-08 07:54 28.14674 -2.20043 36892 ft 553 kts 61°
2026-05-08 07:55 28.18182 -2.12286 36895 ft 553 kts 62°
2026-05-08 07:55 28.21685 -2.04525 36895 ft 553 kts 62°
2026-05-08 07:56 28.25163 -1.96804 36898 ft 553 kts 62°
2026-05-08 07:56 28.28656 -1.89036 36899 ft 553 kts 61°
2026-05-08 07:57 28.32145 -1.81262 36896 ft 553 kts 61°
2026-05-08 07:57 28.35627 -1.73487 36895 ft 552 kts 61°
2026-05-08 07:58 28.38543 -1.66966 36884 ft 553 kts 62°
2026-05-08 07:58 28.41995 -1.59232 36885 ft 553 kts 62°
2026-05-08 07:59 28.45464 -1.51443 36876 ft 553 kts 61°
2026-05-08 07:59 28.48929 -1.43651 36891 ft 552 kts 61°
2026-05-08 08:00 28.52390 -1.35851 36874 ft 552 kts 61°
2026-05-08 08:00 28.55849 -1.28042 36889 ft 553 kts 62°
2026-05-08 08:01 28.59299 -1.20237 36890 ft 553 kts 62°
2026-05-08 08:01 28.62748 -1.12419 36890 ft 552 kts 61°
2026-05-08 08:02 28.66190 -1.04600 36928 ft 552 kts 62°
2026-05-08 08:02 28.69631 -0.96771 36887 ft 553 kts 62°
2026-05-08 08:03 28.73068 -0.88935 36890 ft 553 kts 62°
2026-05-08 08:03 28.76500 -0.81092 36891 ft 553 kts 62°
2026-05-08 08:04 28.79930 -0.73241 36905 ft 553 kts 61°
2026-05-08 08:04 28.83349 -0.65399 36901 ft 552 kts 62°
2026-05-08 08:05 28.86765 -0.57547 36895 ft 552 kts 62°
2026-05-08 08:05 28.90176 -0.49693 36895 ft 552 kts 62°
2026-05-08 08:06 28.93576 -0.41847 36894 ft 552 kts 62°
2026-05-08 08:06 28.96954 -0.34036 36891 ft 552 kts 62°
2026-05-08 08:07 29.00353 -0.26163 36897 ft 553 kts 62°
2026-05-08 08:07 29.03746 -0.18286 36898 ft 553 kts 62°
2026-05-08 08:08 29.07138 -0.10398 36895 ft 553 kts 62°
2026-05-08 08:08 29.10525 -0.02502 36898 ft 553 kts 62°
2026-05-08 08:09 29.13906 0.05393 36897 ft 552 kts 62°
2026-05-08 08:09 29.17282 0.13288 36891 ft 552 kts 62°
2026-05-08 08:10 29.20648 0.21171 36887 ft 551 kts 62°
2026-05-08 08:10 29.24069 0.29014 36882 ft 549 kts 58°
2026-05-08 08:11 29.28023 0.36488 36876 ft 548 kts 56°
2026-05-08 08:11 29.31986 0.43945 36914 ft 548 kts 56°
2026-05-08 08:12 29.35878 0.51446 36907 ft 547 kts 57°
2026-05-08 08:12 29.39721 0.58909 36899 ft 547 kts 57°
2026-05-08 08:13 29.43584 0.66424 36903 ft 547 kts 57°
2026-05-08 08:13 29.47437 0.73934 36899 ft 546 kts 57°
2026-05-08 08:14 29.51287 0.81450 36911 ft 546 kts 57°
2026-05-08 08:14 29.55130 0.88966 36907 ft 546 kts 57°
2026-05-08 08:15 29.58967 0.96485 36913 ft 545 kts 57°
2026-05-08 08:15 29.62801 1.04010 36908 ft 545 kts 57°
2026-05-08 08:16 29.66629 1.11540 36907 ft 545 kts 57°
2026-05-08 08:16 29.70448 1.19065 36916 ft 545 kts 57°
2026-05-08 08:17 29.74263 1.26597 36918 ft 544 kts 57°
2026-05-08 08:17 29.78076 1.34118 36916 ft 544 kts 56°
2026-05-08 08:18 29.81971 1.41579 36940 ft 544 kts 56°
2026-05-08 08:18 29.85874 1.49050 36917 ft 544 kts 56°
2026-05-08 08:19 29.89755 1.56526 36926 ft 544 kts 56°
2026-05-08 08:19 29.93633 1.64014 36929 ft 543 kts 56°
2026-05-08 08:20 29.97500 1.71495 36922 ft 543 kts 56°
2026-05-08 08:20 30.01358 1.78973 36920 ft 543 kts 56°